Weather History for Elko, NV

Change the Weather History Date:

Sunday, May 5, 2013

  Actual Average Record
Temperature  
Mean Temperature 62 °F 50 °F  
Max Temperature 74 °F 66 °F 86 °F (1947)
Min Temperature 49 °F 35 °F 15 °F (1961)
Degree Days  
Heating Degree Days 3 15  
Month to date heating degree days 75 77  
Since 1 July heating degree days 6475 6648  
Cooling Degree Days 0 0  
Month to date cooling degree days 0 0  
Year to date cooling degree days 0 0  
Growing Degree Days 12 (Base 50)    
Moisture  
Dew Point 29 °F    
Average Humidity 29    
Maximum Humidity 41    
Minimum Humidity 16    
Precipitation  
Precipitation T in 0.04 in 0.81 in (1889)
Month to date precipitation T 0.17  
Year to date precipitation 2.20 4.10  
Snow  
Snow 0.00 in 0.10 in 2.00 in (1930)
Month to date snowfall 0.0 0.2  
Since 1 July snowfall 42.2 41.0  
Snow Depth 0.00 in    
Sea Level Pressure  
Sea Level Pressure 29.73 in    
Wind  
Wind Speed 7 mph (NE)    
Max Wind Speed 28 mph    
Max Gust Speed 44 mph    
Visibility 10 miles    
Events Rain    
T = Trace of Precipitation, MM = Missing Value Source: NWS Daily Summary

Daily Weather History Graph

Daily Weather History Graph

Search for Another Location

Airport:

Trip Planner

Search our weather history database for the weather conditions in past years. The results will help you decide how hot, cold, wet, or windy it might be!

Date:

Astronomy

May. 05, 2013 Rise Set
Actual Time 5:36 AM PDT 7:44 PM PDT
Civil Twilight 5:06 AM PDT 8:14 PM PDT
Nautical Twilight 4:29 AM PDT 8:51 PM PDT
Astronomical Twilight 3:48 AM PDT 9:32 PM PDT
Moon 3:10 AM PDT (5/5) 3:46 PM PDT (5/5)
Length of Visible Light 15h 08m
Length of Day
14h 07m
Waning Crescent, 17% of the Moon is Illuminated
May 5
Waning Crescent
May 9
New
May 17
First Quarter
May 24
Full
May 31
Last Quarter

Hourly Weather History & Observations

Time (PDT) Temp. Dew Point Humidity Pressure Visibility Wind Dir Wind Speed Gust Speed Precip Events Conditions
12:56 AM 53.1 °F 28.9 °F 40% 29.76 in 10.0 mi NNE 16.1 mph - N/A   Clear
1:56 AM 53.1 °F 28.0 °F 38% 29.76 in 10.0 mi NE 9.2 mph - N/A   Clear
2:56 AM 53.1 °F 28.0 °F 38% 29.75 in 10.0 mi NNE 12.7 mph - N/A   Mostly Cloudy
3:56 AM 52.0 °F 28.9 °F 41% 29.75 in 10.0 mi NE 11.5 mph - N/A   Scattered Clouds
4:56 AM 51.1 °F 28.9 °F 43% 29.76 in 10.0 mi ENE 9.2 mph - N/A   Mostly Cloudy
5:56 AM 51.1 °F 28.9 °F 43% 29.75 in 10.0 mi NE 8.1 mph - N/A   Clear
6:56 AM 51.1 °F 28.9 °F 43% 29.77 in 10.0 mi ENE 9.2 mph - N/A   Clear
7:56 AM 57.0 °F 30.0 °F 36% 29.76 in 10.0 mi NE 10.4 mph - N/A   Clear
8:56 AM 60.1 °F 30.0 °F 32% 29.76 in 10.0 mi NE 16.1 mph 19.6 mph N/A   Clear
9:56 AM 63.0 °F 28.0 °F 27% 29.76 in 10.0 mi North 6.9 mph - N/A   Clear
10:56 AM 66.9 °F 27.0 °F 22% 29.74 in 10.0 mi Calm Calm - N/A   Partly Cloudy
11:56 AM 70.0 °F 27.0 °F 20% 29.71 in 10.0 mi Variable 4.6 mph - N/A   Partly Cloudy
12:56 PM 71.1 °F 25.0 °F 18% 29.69 in 10.0 mi Variable 3.5 mph - N/A   Partly Cloudy
1:56 PM 72.0 °F 25.0 °F 17% 29.67 in 10.0 mi Variable 4.6 mph - N/A   Clear
2:56 PM 73.0 °F 24.1 °F 16% 29.64 in 10.0 mi Variable 4.6 mph - N/A   Mostly Cloudy
3:56 PM 66.0 °F 27.0 °F 23% 29.69 in 10.0 mi Variable 3.5 mph 40.3 mph 0.00 in Rain Light Rain
4:56 PM 66.9 °F 27.0 °F 22% 29.67 in 10.0 mi ENE 12.7 mph - 0.00 in   Mostly Cloudy
5:36 PM 64.4 °F 30.2 °F 28% 29.79 in 10.0 mi North 10.4 mph 28.8 mph 0.00 in Rain Light Rain
5:56 PM 66.0 °F 30.0 °F 26% 29.68 in 10.0 mi North 9.2 mph - 0.00 in   Partly Cloudy
6:56 PM 66.0 °F 30.0 °F 26% 29.68 in 10.0 mi East 8.1 mph - N/A   Mostly Cloudy
7:56 PM 63.0 °F 30.9 °F 30% 29.70 in 10.0 mi East 5.8 mph - N/A   Mostly Cloudy
8:56 PM 62.1 °F 30.0 °F 30% 29.72 in 10.0 mi NE 9.2 mph - N/A   Mostly Cloudy
9:56 PM 59.0 °F 30.9 °F 35% 29.73 in 10.0 mi NE 8.1 mph - N/A   Partly Cloudy
10:56 PM 57.0 °F 30.9 °F 37% 29.72 in 10.0 mi NE 8.1 mph - N/A   Overcast
11:56 PM 54.0 °F 30.9 °F 41% 29.74 in 10.0 mi Calm Calm - N/A   Mostly Cloudy